FW9212 Weather Reports


time (UTC)temp
C
wind
direction
speed
KPH
gust
KPH
rain 1hr
cm
rain 24hr
cm
rain mn
cm
humidity
%
barometer
mb
20260504050023 19 192 4.8 9.7 0.00 0.00 0.00 72 1019.2
20260504045028 19 146 8.0 11.3 0.00 0.00 0.00 72 1019.3
20260504044015 19 143 6.4 12.9 0.00 0.00 0.00 71 1019.3
20260504043041 19 127 6.4 12.9 0.00 0.00 0.00 71 1019.3
20260504042026 19 137 6.4 9.7 0.00 0.00 0.00 69 1019.3
20260504041031 20 124 6.4 12.9 0.00 0.00 0.00 69 1019.4
20260504040019 20 150 4.8 8.0 0.00 0.00 0.00 68 1019.4
20260504035024 20 154 4.8 8.0 0.00 0.00 0.00 66 1019.3
20260504034049 20 131 6.4 9.7 0.00 0.00 0.00 65 1019.4
20260504033017 20 139 4.8 8.0 0.00 0.00 0.00 63 1019.4
20260504032021 20 117 6.4 8.0 0.00 0.00 0.00 62 1019.2
20260504031027 20 125 6.4 9.7 0.00 0.00 0.00 59 1019.1
20260504030026 20 115 4.8 8.0 0.00 0.00 0.00 59 1019.0
20260504025020 20 168 1.6 4.8 0.00 0.00 0.00 59 1018.9
20260504024045 20 0.0 0.0 0.00 0.00 0.00 57 1019.0
20260504023024 20 0.0 0.0 0.00 0.00 0.00 57 1019.1
20260504022017 21 0.0 0.0 0.00 0.00 0.00 55 1019.0
20260504021023 21 180 1.6 3.2 0.00 0.00 0.00 55 1019.0
20260504020022 21 158 0.0 3.2 0.00 0.00 0.00 54 1018.8
20260504015015 22 134 1.6 4.8 0.00 0.00 0.00 52 1018.7
20260504014020 22 147 1.6 4.8 0.00 0.00 0.00 51 1018.6
20260504013019 22 123 3.2 6.4 0.00 0.00 0.00 51 1018.5
20260504012019 23 118 1.6 4.8 0.00 0.00 0.00 49 1018.5
20260504011018 23 126 3.2 8.0 0.00 0.00 0.00 48 1018.5
20260504010017 23 134 4.8 8.0 0.00 0.00 0.00 46 1018.6
20260504005017 24 178 3.2 6.4 0.00 0.00 0.00 45 1018.6
20260504004015 25 210 4.8 8.0 0.00 0.00 0.00 44 1018.6
20260504003015 25 138 4.8 9.7 0.00 0.00 0.00 43 1018.7
20260504002046 26 262 3.2 6.4 0.00 0.00 0.00 42 1018.7
20260504001031 26 123 4.8 9.7 0.00 0.00 0.00 41 1018.7
20260504000019 27 175 4.8 9.7 0.00 0.00 0.00 40 1018.9
20260503235024 27 129 6.4 9.7 0.00 0.00 0.00 39 1019.0
20260503234029 27 217 6.4 9.7 0.00 0.00 0.00 39 1019.1
20260503233017 27 133 4.8 8.0 0.00 0.00 0.00 39 1019.2
20260503232022 28 151 4.8 9.7 0.00 0.00 0.00 39 1019.3
20260503231027 28 136 6.4 9.7 0.00 0.00 0.00 40 1019.2
20260503230032 28 185 6.4 9.7 0.00 0.00 0.00 40 1019.3
20260503225019 27 229 6.4 9.7 0.00 0.00 0.00 40 1019.3
20260503224025 27 126 4.8 8.0 0.00 0.00 0.00 42 1019.4
20260503223030 28 229 6.4 8.0 0.00 0.00 0.00 40 1019.4
20260503222017 27 214 6.4 9.7 0.00 0.00 0.00 41 1019.8
20260503221022 27 150 6.4 11.3 0.00 0.00 0.00 39 1019.9
20260503220028 27 252 4.8 8.0 0.00 0.00 0.00 40 1020.1
20260503215015 27 164 6.4 12.9 0.00 0.00 0.00 39 1020.3
20260503214020 27 239 6.4 9.7 0.00 0.00 0.00 40 1020.4
20260503213025 28 281 4.8 11.3 0.00 0.00 0.00 39 1020.5
20260503212031 28 113 4.8 9.7 0.00 0.00 0.00 37 1021.0
20260503211018 28 168 4.8 8.0 0.00 0.00 0.00 39 1021.0
20260503210023 27 117 9.7 14.5 0.00 0.00 0.00 39 1021.3
20260503205028 28 192 4.8 8.0 0.00 0.00 0.00 39 1021.5
20260503204056 28 138 4.8 11.3 0.00 0.00 0.00 40 1021.6
20260503203021 28 258 6.4 11.3 0.00 0.00 0.00 40 1021.8
20260503202026 28 238 4.8 11.3 0.00 0.00 0.00 41 1022.0
20260503201032 28 269 4.8 8.0 0.00 0.00 0.00 40 1022.1
20260503200019 27 95 4.8 6.4 0.00 0.00 0.00 41 1022.4
20260503195024 27 118 4.8 8.0 0.00 0.00 0.00 42 1022.5
20260503194030 27 126 4.8 8.0 0.00 0.00 0.00 41 1022.6
20260503193017 27 266 4.8 6.4 0.00 0.00 0.00 42 1022.7
20260503192022 26 110 8.0 16.1 0.00 0.00 0.00 42 1022.6
20260503191048 26 136 4.8 9.7 0.00 0.00 0.00 45 1023.0
20260503190033 26 110 6.4 9.7 0.00 0.00 0.00 42 1023.2
20260503185020 26 123 4.8 11.3 0.00 0.00 0.00 45 1023.3
20260503184025 27 132 6.4 11.3 0.00 0.00 0.00 45 1023.4
20260503183031 26 138 6.4 11.3 0.00 0.00 0.00 46 1023.6
20260503182017 27 123 6.4 9.7 0.00 0.00 0.00 46 1023.7
20260503181023 27 221 4.8 6.4 0.00 0.00 0.00 47 1023.9
20260503180028 27 277 4.8 8.0 0.00 0.00 0.00 44 1024.3
20260503175015 25 110 4.8 6.4 0.00 0.00 0.00 49 1024.5
20260503174021 25 100 4.8 6.4 0.00 0.00 0.00 50 1024.6
20260503173026 26 258 6.4 9.7 0.00 0.00 0.00 48 1024.6
20260503172031 26 244 4.8 6.4 0.00 0.00 0.00 48 1025.1
20260503171018 25 178 4.8 8.0 0.00 0.00 0.00 50 1025.1
20260503131019 13 0.0 0.0 0.00 0.00 0.00 83 1024.6
20260503081033 12 0.0 0.0 0.00 0.00 0.00 84 1023.4